Volver al catálogo

STARLINK-31888

ActivoComunicacionesVLEO
NORAD 59788·PAYLOAD·🇺🇸 United States

Lanzado May 18, 2024 desde Cape Canaveral Space Force Station

Loading…

Próximos Pases (próximas 24 horas)

TLE

ActualizadoSource: CelesTrak SupGP

Época: Sep 14, 2026, 21:14 UTC

1 59788C 24093G   26257.88520833  .00037349  00000+0  13528-2 0  2577
2 59788  43.0027 220.1743 0001639 265.0010  82.3717 15.27558164    10

Sigue STARLINK-31888 en tiempo real con AllMySat

Download on the App Store